Location: London
(42.9830°N, 81.2500°W)
Time: 21:39:18
(UTC-05:00)

Amateur Radio Satellites - All Passes

Search period start: 23 November 2014 21:09
Search period end: 24 November 2014 21:09
Location: London, 42.9830°N, 81.2500°W

Satellite Date Start Highest point End Downlink Frequencies (MHz)
Time Altitude Azimuth
DX 1 23 Nov 21:18:43 21:23:07 86° 75° (ENE) 21:27:32 434.975-435.025
AIST 2 23 Nov 21:20:49 21:24:48 43° 117° (ESE) 21:28:53 435.215
ESTCUBE 1 23 Nov 21:28:50 21:31:17 15° 61° (ENE) 21:33:45 437.505/2401.250
AIST 1 23 Nov 21:29:10 21:32:19 19° 289° (WNW) 21:35:30
GONETS M04 23 Nov 21:29:13 21:36:40 32° 277° (W) 21:44:04
AAUSAT CUBESAT 2 23 Nov 21:30:18 21:34:05 34° 263° (W) 21:37:54 437.432
CANX-2 23 Nov 21:33:25 21:36:33 20° 267° (W) 21:39:42 2200.000
HO-68 23 Nov 21:34:58 21:41:18 33° 264° (W) 21:47:41 435.675
VELOX 1 23 Nov 21:37:22 21:41:35 42° 70° (ENE) 21:45:49 145.980
COMPASS 1 23 Nov 21:44:28 21:47:43 22° 266° (W) 21:50:59 437.405
ZACube-1 23 Nov 21:45:07 21:49:21 75° 76° (ENE) 21:53:32 437.345
HUMSAT D 23 Nov 21:47:49 21:51:48 48° 73° (ENE) 21:55:47 437.325/437.525
DELFI C3 23 Nov 21:48:12 21:52:08 49° 261° (W) 21:56:07 145.870
DOVE 4 23 Nov 21:49:49 21:53:55 30° 263° (W) 21:57:51 437.250
50 SAT 23 Nov 21:53:52 21:57:44 46° 72° (ENE) 22:01:36 437.505
AISAT 23 Nov 22:01:43 22:06:12 78° 75° (ENE) 22:10:42 437.250
QB50P2 23 Nov 22:08:05 22:08:59 11° 89° (E) 22:09:53 145.880/145.840
PCSat 23 Nov 22:08:39 22:13:00 24° 315° (NW) 22:17:22 145.827
TIGRISAT 23 Nov 22:12:15 22:15:21 19° 93° (E) 22:18:29 435.000
DUCHIFAT 1 23 Nov 22:14:56 22:16:49 13° 90° (E) 22:18:42 145.980
FUNcube-1 23 Nov 22:21:11 22:25:13 43° 261° (W) 22:29:13 145.935
GOMX 1 23 Nov 22:22:48 22:24:38 12° 270° (W) 22:26:25 467.674
UKube-1 23 Nov 22:23:14 22:26:31 21° 266° (W) 22:29:49 .
TISAT 1 23 Nov 22:23:29 22:25:23 13° 62° (ENE) 22:27:16 437.305
BEESAT 3 23 Nov 22:23:36 22:26:59 24° 315° (NW) 22:30:26 437.485
UNISAT 6 23 Nov 22:24:01 22:27:41 25° 95° (E) 22:31:24 437.425
CUBEBUG 1 23 Nov 22:24:23 22:28:39 47° 72° (ENE) 22:32:56 437.445
SPROUT 23 Nov 22:25:44 22:27:16 12° 61° (ENE) 22:28:49 437.525
NANOSAT C BR1 23 Nov 22:32:50 22:36:01 20° 94° (E) 22:39:10 145.865
CUBEBUG 2 23 Nov 22:36:12 22:39:36 23° 265° (W) 22:42:59 437.445
BEESAT 2 23 Nov 22:37:15 22:40:26 21° 317° (NW) 22:43:39 435.950
RS-15 23 Nov 22:37:18 22:46:07 26° 16° (NNE) 22:55:08 29.354- 29.394
Oscar 11 23 Nov 22:37:47 22:40:01 14° 270° (W) 22:42:16 145.826/435.025
UWE-3 23 Nov 22:41:45 22:45:08 23° 265° (W) 22:48:29 435.000/436.395/437.385
QB50P1 23 Nov 22:42:06 22:45:38 26° 95° (E) 22:49:10 145.935-145.965
CINEMA 3 23 Nov 22:47:03 22:48:53 12° 269° (W) 22:50:43 145.822/145.860
ANTELSAT 23 Nov 22:52:00 22:56:19 49° 100° (E) 23:00:42 437.575/2403.000
AIST 2 23 Nov 23:00:09 23:03:37 24° 316° (NW) 23:07:09 435.215
CUSAT 1 23 Nov 23:02:32 23:04:49 14° 72° (ENE) 23:07:25 437.405
ESTCUBE 1 23 Nov 23:03:07 23:07:38 65° 259° (WSW) 23:12:11 437.505/2401.250
BUGSAT 1 23 Nov 23:05:48 23:09:39 37° 98° (E) 23:13:25 437.445
POPSAT HIP 1 23 Nov 23:06:09 23:10:15 47° 99° (E) 23:14:18 437.405
VELOX 1 23 Nov 23:15:08 23:18:21 19° 267° (W) 23:21:36 145.980
DANDE 23 Nov 23:17:02 23:19:34 15° 73° (ENE) 23:22:29 436.750
HUMSAT D 23 Nov 23:25:36 23:27:54 14° 269° (W) 23:30:11 437.325/437.525
50 SAT 23 Nov 23:31:06 23:33:19 14° 269° (W) 23:35:32 437.505
ISS 23 Nov 23:36:31 23:38:19 14° 132° (SE) 23:40:08 145.825
ITUPSAT 1 23 Nov 23:36:57 23:39:20 14° 60° (ENE) 23:41:44 437.325
POLYITAN 1 23 Nov 23:38:05 23:42:19 74° 285° (WNW) 23:46:32 437.675
QB50P2 23 Nov 23:41:09 23:45:22 69° 285° (WNW) 23:49:34 145.880/145.840
AISAT 23 Nov 23:42:38 23:43:22 10° 271° (W) 23:44:07 437.250
SWISSCUBE 23 Nov 23:47:47 23:51:07 19° 63° (ENE) 23:54:27 437.505
TIGRISAT 23 Nov 23:48:08 23:52:17 43° 289° (WNW) 23:56:31 435.000
DUCHIFAT 1 23 Nov 23:48:55 23:53:04 57° 287° (WNW) 23:57:11 145.980
TISAT 1 23 Nov 23:56:26 00:00:41 67° 258° (WSW) 00:04:57 437.305
SPROUT 23 Nov 23:58:27 00:02:46 75° 258° (WSW) 00:07:06 437.525
UNISAT 6 24 Nov 00:00:35 00:04:30 32° 291° (WNW) 00:08:29 437.425
CUBEBUG 1 24 Nov 00:02:22 00:05:17 17° 268° (W) 00:08:12 437.445
NANOSAT C BR1 24 Nov 00:08:09 00:12:00 35° 290° (WNW) 00:15:50 145.865
AUBIESAT-1 24 Nov 00:10:00 00:13:54 52° 67° (ENE) 00:18:11 437.475
M-CUBED/EXP-1 PRIME 24 Nov 00:13:26 00:17:22 62° 68° (ENE) 00:21:43 437.505
QB50P1 24 Nov 00:17:54 00:21:31 28° 292° (WNW) 00:25:07 145.935-145.965
BEESAT 24 Nov 00:18:16 00:22:32 33° 68° (ENE) 00:26:49 436.000
ANTELSAT 24 Nov 00:29:52 00:32:46 18° 296° (WNW) 00:35:43 437.575/2403.000
BUGSAT 1 24 Nov 00:42:00 00:44:53 19° 295° (WNW) 00:47:45 437.445
POPSAT HIP 1 24 Nov 00:43:08 00:45:48 17° 296° (WNW) 00:48:27 437.405
CUSAT 1 24 Nov 00:43:39 00:47:58 65° 261° (W) 00:53:48 437.405
RS-15 24 Nov 00:50:34 01:01:34 58° 47° (NE) 01:12:59 29.354- 29.394
STARS 24 Nov 00:52:14 00:52:54 10° 59° (ENE) 00:53:35 437.465
DANDE 24 Nov 00:58:55 01:03:01 54° 262° (W) 01:08:33 436.750
Oscar 19 24 Nov 01:01:48 01:05:42 21° 93° (E) 01:09:34 437.125/150
ISS 24 Nov 01:11:18 01:14:34 75° 328° (NNW) 01:17:52 145.825
ITUPSAT 1 24 Nov 01:11:47 01:16:36 77° 257° (WSW) 01:21:27 437.325
MaSat-1 24 Nov 01:12:43 01:15:00 60° 63° (ENE) 01:17:21 437.345
SWISSCUBE 24 Nov 01:23:53 01:28:34 53° 260° (W) 01:33:18 437.505
KKS-1 24 Nov 01:24:04 01:28:00 31° 68° (ENE) 01:31:57 437.445
AUBIESAT-1 24 Nov 01:47:05 01:49:20 14° 266° (W) 01:51:41 437.475
ITAMSAT 1 24 Nov 01:49:27 01:53:30 23° 93° (E) 01:57:31 435.822/435.867
M-CUBED/EXP-1 PRIME 24 Nov 01:51:25 01:52:59 12° 267° (W) 01:54:36 437.505
BEESAT 24 Nov 01:56:17 02:00:23 28° 265° (W) 02:04:31 436.000
Gurwin Techsat 1B 24 Nov 02:07:53 02:11:45 20° 92° (E) 02:15:36 435.225
STARS 24 Nov 02:24:17 02:28:42 88° 256° (WSW) 02:33:08 437.465
HORYU 2 24 Nov 02:31:43 02:33:40 13° 90° (E) 02:35:36 437.375
Oscar 19 24 Nov 02:40:19 02:45:17 49° 290° (WNW) 02:50:15 437.125/150
YUBILEINY 24 Nov 02:43:36 02:52:10 59° 91° (E) 03:00:43 435.215
ISS 24 Nov 02:49:00 02:51:38 22° 347° (NNW) 02:54:17 145.825
KKS-1 24 Nov 03:00:57 03:04:39 26° 265° (W) 03:08:23 437.445
RS-15 24 Nov 03:03:18 03:13:45 47° 250° (WSW) 03:24:40 29.354- 29.394
SO-50 24 Nov 03:27:00 03:29:39 16° 109° (ESE) 03:32:21 436.795
ITAMSAT 1 24 Nov 03:28:15 03:33:12 46° 290° (WNW) 03:38:06 435.822/435.867
PCSat 24 Nov 03:29:06 03:31:39 13° 35° (NE) 03:34:12 145.827
Gurwin Techsat 1B 24 Nov 03:46:52 03:52:03 54° 289° (WNW) 03:57:11 435.225
MOZHAYETS 4 24 Nov 03:48:37 03:52:35 29° 68° (ENE) 03:56:34
HORYU 2 24 Nov 04:06:19 04:10:46 65° 286° (WNW) 04:15:13 437.375
PRISM 24 Nov 04:16:31 04:17:53 11° 60° (ENE) 04:19:14 437.425
ISS 24 Nov 04:26:40 04:29:07 19° 7° (N) 04:31:34 145.825
AO-7 24 Nov 04:27:04 04:35:16 55° 102° (ESE) 04:43:24 29.400- 29.500
YUBILEINY 24 Nov 04:41:47 04:49:26 32° 292° (WNW) 04:57:08 435.215
JAS-2 24 Nov 04:43:57 04:49:53 27° 90° (E) 04:55:15 435.910
STRAND 1 24 Nov 05:02:08 05:05:18 17° 60° (ENE) 05:08:29 437.568
BEESAT 3 24 Nov 05:03:52 05:07:46 35° 49° (NE) 05:11:37 437.485
SO-50 24 Nov 05:05:10 05:09:39 63° 307° (NW) 05:14:18 436.795
PCSat 24 Nov 05:10:51 05:16:15 60° 56° (NE) 05:21:35 145.827
BEESAT 2 24 Nov 05:17:23 05:21:26 43° 51° (NE) 05:25:26 435.950
CUBESAT XI-V 24 Nov 05:24:01 05:27:41 23° 66° (ENE) 05:31:22 437.345
MOZHAYETS 4 24 Nov 05:25:46 05:29:45 29° 265° (W) 05:33:47
AIST 2 24 Nov 05:41:59 05:46:04 40° 50° (NE) 05:50:06 435.215
PRISM 24 Nov 05:48:38 05:52:49 75° 257° (WSW) 05:57:04 437.425
Cubesat XI-IV 24 Nov 05:50:32 05:54:41 23° 93° (E) 05:58:48 437.490
AIST 1 24 Nov 05:58:40 06:00:17 12° 66° (ENE) 06:01:54
ISS 24 Nov 06:03:08 06:06:21 46° 27° (NNE) 06:09:33 145.825
AO-7 24 Nov 06:20:18 06:27:44 38° 302° (WNW) 06:35:11 29.400- 29.500
O/OREOS (USA 219) 24 Nov 06:25:40 06:30:01 52° 108° (ESE) 06:34:23 437.305
JAS-2 24 Nov 06:28:17 06:35:23 57° 291° (WNW) 06:41:40 435.910
CUTE-I 24 Nov 06:31:51 06:37:03 52° 100° (E) 06:42:13 437.470
STRAND 1 24 Nov 06:38:48 06:43:55 70° 258° (WSW) 06:49:05 437.568
BEESAT 3 24 Nov 06:42:25 06:45:51 25° 247° (WSW) 06:49:14 437.485
GONETS M04 24 Nov 06:44:21 06:46:59 12° 71° (ENE) 06:49:38
SO-50 24 Nov 06:49:02 06:51:10 13° 328° (NNW) 06:53:21 436.795
PCSat 24 Nov 06:55:17 06:59:10 20° 254° (WSW) 07:03:03 145.827
BEESAT 2 24 Nov 06:56:20 06:59:27 20° 248° (WSW) 07:02:31 435.950
CUBESAT XI-V 24 Nov 07:00:26 07:04:53 40° 262° (W) 07:09:21 437.345
AIST 2 24 Nov 07:21:05 07:24:29 23° 248° (WSW) 07:27:50 435.215
Cubesat XI-IV 24 Nov 07:29:54 07:35:01 48° 290° (WNW) 07:40:05 437.490
AIST 1 24 Nov 07:34:06 07:38:28 67° 265° (W) 07:42:47
ISS 24 Nov 07:40:06 07:42:50 24° 224° (SW) 07:45:35 145.825
O/OREOS (USA 219) 24 Nov 08:06:37 08:09:44 18° 307° (NW) 08:12:52 437.305
CUTE-I 24 Nov 08:12:44 08:16:45 22° 298° (WNW) 08:20:45 437.470
JAS-2 24 Nov 08:16:16 08:18:41 12° 312° (NW) 08:21:02 435.910
CUTE 1.7 & AOD 2 24 Nov 08:17:39 08:19:43 13° 90° (E) 08:21:46 437.475
GONETS M04 24 Nov 08:33:16 08:41:54 65° 92° (E) 08:50:37
GOMX 1 24 Nov 08:43:23 08:46:04 17° 92° (E) 08:48:46 467.674
SEEDS 24 Nov 08:52:03 08:55:42 27° 95° (E) 08:59:21 437.485
HO-68 24 Nov 09:00:33 09:07:27 47° 100° (E) 09:14:17 435.675
BRITE-PL 24 Nov 09:00:46 09:04:35 35° 97° (E) 09:08:25 437.365/2234.400
CINEMA 3 24 Nov 09:02:49 09:04:36 12° 91° (E) 09:06:23 145.822/145.860
QB50P2 24 Nov 09:03:09 09:04:04 11° 60° (ENE) 09:05:00 145.880/145.840
DX 1 24 Nov 09:08:07 09:10:20 14° 91° (E) 09:12:32 434.975-435.025
DUCHIFAT 1 24 Nov 09:09:38 09:11:24 12° 61° (ENE) 09:13:10 145.980
TIGRISAT 24 Nov 09:12:51 09:15:47 19° 65° (ENE) 09:18:44 435.000
AAUSAT CUBESAT 2 24 Nov 09:12:53 09:16:46 34° 97° (E) 09:20:37 437.432
CANX-2 24 Nov 09:16:46 09:21:03 64° 101° (E) 09:25:18 2200.000
UNISAT 6 24 Nov 09:24:44 09:28:12 25° 67° (ENE) 09:31:41 437.425
COMPASS 1 24 Nov 09:26:33 09:30:44 55° 100° (E) 09:34:54 437.405
NANOSAT C BR1 24 Nov 09:27:17 09:30:17 19° 65° (ENE) 09:33:17 145.865
DELFI C3 24 Nov 09:28:47 09:32:01 22° 94° (E) 09:35:14 145.870
ZACube-1 24 Nov 09:34:45 09:36:46 13° 91° (E) 09:38:48 437.345
QB50P1 24 Nov 09:36:26 09:39:50 23° 67° (ENE) 09:43:13 145.935-145.965
DOVE 4 24 Nov 09:47:23 09:51:31 64° 101° (E) 09:55:44 437.250
CUTE 1.7 & AOD 2 24 Nov 09:51:48 09:56:00 57° 286° (WNW) 10:00:12 437.475
ANTELSAT 24 Nov 09:52:29 09:56:36 48° 72° (ENE) 10:00:43 437.575/2403.000
AISAT 24 Nov 09:53:53 09:56:11 14° 91° (E) 09:58:29 437.250
BUGSAT 1 24 Nov 09:57:07 10:00:54 32° 69° (ENE) 10:04:41 437.445
POPSAT HIP 1 24 Nov 10:00:14 10:04:14 41° 71° (ENE) 10:08:14 437.405
FUNcube-1 24 Nov 10:08:58 10:12:43 30° 97° (E) 10:16:30 145.935
UKube-1 24 Nov 10:09:02 10:13:21 61° 102° (ESE) 10:17:37 .
GOMX 1 24 Nov 10:20:32 10:24:26 40° 288° (WNW) 10:28:22 467.674
Oscar 11 24 Nov 10:21:49 10:26:12 82° 284° (WNW) 10:30:32 145.826/435.025
CUBEBUG 2 24 Nov 10:25:21 10:29:33 64° 101° (ESE) 10:33:50 437.445
SEEDS 24 Nov 10:27:52 10:31:29 27° 292° (WNW) 10:35:06 437.485
UWE-3 24 Nov 10:29:45 10:33:56 62° 101° (E) 10:38:12 435.000/436.395/437.385
GONETS M04 24 Nov 10:31:56 10:39:22 30° 293° (WNW) 10:46:53
POLYITAN 1 24 Nov 10:32:15 10:36:32 87° 257° (WSW) 10:40:49 437.675
QB50P2 24 Nov 10:35:05 10:39:22 81° 257° (WSW) 10:43:39 145.880/145.840
CINEMA 3 24 Nov 10:38:03 10:42:10 58° 286° (WNW) 10:46:23 145.822/145.860
BRITE-PL 24 Nov 10:39:56 10:42:55 20° 294° (WNW) 10:45:54 437.365/2234.400
DUCHIFAT 1 24 Nov 10:42:29 10:46:44 68° 258° (WSW) 10:50:59 145.980
DX 1 24 Nov 10:42:40 10:46:56 56° 287° (WNW) 10:51:10 434.975-435.025
TIGRISAT 24 Nov 10:48:14 10:52:16 41° 261° (W) 10:56:19 435.000
HO-68 24 Nov 10:48:34 10:54:58 36° 298° (WNW) 11:01:20 435.675
AAUSAT CUBESAT 2 24 Nov 10:49:00 10:52:15 22° 293° (WNW) 10:55:31 437.432
CANX-2 24 Nov 10:54:28 10:56:28 13° 298° (WNW) 10:58:28 2200.000
ESTCUBE 1 24 Nov 10:55:47 10:59:31 25° 94° (E) 11:03:13 437.505/2401.250
UNISAT 6 24 Nov 11:01:08 11:04:54 30° 264° (W) 11:08:41 437.425
NANOSAT C BR1 24 Nov 11:01:52 11:05:54 41° 261° (W) 11:09:56 145.865
COMPASS 1 24 Nov 11:03:40 11:06:01 15° 297° (WNW) 11:08:22 437.405
DELFI C3 24 Nov 11:03:41 11:07:22 32° 290° (WNW) 11:11:03 145.870
VELOX 1 24 Nov 11:03:42 11:08:09 76° 103° (ESE) 11:12:33 145.980
HUMSAT D 24 Nov 11:07:09 11:11:20 85° 103° (ESE) 11:15:32 437.325/437.525
50 SAT 24 Nov 11:09:04 11:13:08 74° 102° (ESE) 11:17:13 437.505
ZACube-1 24 Nov 11:09:21 11:13:29 56° 286° (WNW) 11:17:40 437.345
QB50P1 24 Nov 11:11:44 11:15:34 32° 263° (W) 11:19:25 145.935-145.965
DOVE 4 24 Nov 11:27:11 11:28:50 12° 298° (WNW) 11:30:29 437.250
AISAT 24 Nov 11:28:51 11:33:12 57° 287° (WNW) 11:37:31 437.250
ANTELSAT 24 Nov 11:31:12 11:33:42 15° 269° (W) 11:36:12 437.575/2403.000
BUGSAT 1 24 Nov 11:33:01 11:36:26 23° 265° (W) 11:39:51 437.445
POPSAT HIP 1 24 Nov 11:37:23 11:40:19 18° 267° (W) 11:43:16 437.405
TISAT 1 24 Nov 11:41:48 11:44:43 18° 93° (E) 11:47:37 437.305
SPROUT 24 Nov 11:45:34 11:48:30 18° 92° (E) 11:51:25 437.525
FUNcube-1 24 Nov 11:45:34 11:48:57 24° 292° (WNW) 11:52:23 145.935
UKube-1 24 Nov 11:46:43 11:49:01 14° 299° (WNW) 11:51:18 .
CUBEBUG 1 24 Nov 11:48:53 11:53:18 86° 104° (ESE) 11:57:38 437.445
SO-50 24 Nov 11:55:48 11:59:46 24° 42° (NE) 12:03:45 436.795
CUBEBUG 2 24 Nov 12:03:56 12:05:47 13° 298° (WNW) 12:07:37 437.445
UWE-3 24 Nov 12:08:04 12:10:01 13° 297° (WNW) 12:12:00 435.000/436.395/437.385
Oscar 19 24 Nov 12:19:26 12:23:59 34° 67° (ENE) 12:28:34 437.125/150
ESTCUBE 1 24 Nov 12:32:20 12:36:26 34° 291° (WNW) 12:40:30 437.505/2401.250
VELOX 1 24 Nov 12:42:26 12:44:07 12° 300° (WNW) 12:45:47 145.980
50 SAT 24 Nov 12:47:07 12:47:53 10° 299° (WNW) 12:48:38 437.505
YUBILEINY 24 Nov 12:53:00 13:00:28 30° 67° (ENE) 13:07:51 435.215
ITAMSAT 1 24 Nov 13:08:05 13:12:53 38° 68° (ENE) 13:17:41 435.822/435.867
ITUPSAT 1 24 Nov 13:12:16 13:16:17 26° 95° (E) 13:20:16 437.325
TISAT 1 24 Nov 13:16:47 13:20:44 39° 289° (WNW) 13:24:39 437.305
SPROUT 24 Nov 13:20:45 13:24:47 41° 289° (WNW) 13:28:48 437.525
SWISSCUBE 24 Nov 13:23:39 13:28:06 37° 98° (E) 13:32:31 437.505
AUBIESAT-1 24 Nov 13:26:27 13:31:08 42° 103° (ESE) 13:35:43 437.475
CUBEBUG 1 24 Nov 13:28:13 13:28:58 10° 301° (WNW) 13:29:44 437.445
Gurwin Techsat 1B 24 Nov 13:29:36 13:34:22 35° 67° (ENE) 13:39:09 435.225
M-CUBED/EXP-1 PRIME 24 Nov 13:30:17 13:35:06 50° 104° (ESE) 13:39:50 437.505
HORYU 2 24 Nov 13:31:37 13:33:59 14° 61° (ENE) 13:36:21 437.375
SO-50 24 Nov 13:35:52 13:40:39 56° 241° (WSW) 13:45:26 436.795
AO-7 24 Nov 13:38:07 13:43:32 20° 48° (NE) 13:48:57 29.400- 29.500
BEESAT 24 Nov 13:54:55 13:59:44 70° 102° (ESE) 14:04:29 436.000
Oscar 19 24 Nov 13:58:50 14:03:19 31° 264° (W) 14:07:50 437.125/150
CUSAT 1 24 Nov 13:59:43 14:02:12 30° 283° (WNW) 14:04:34 437.405
STARS 24 Nov 14:14:52 14:17:35 16° 92° (E) 14:20:18 437.465
DANDE 24 Nov 14:17:56 14:20:13 22° 284° (WNW) 14:22:21 436.750
ITAMSAT 1 24 Nov 14:48:00 14:52:26 28° 265° (W) 14:56:54 435.822/435.867
YUBILEINY 24 Nov 14:49:18 14:57:51 62° 268° (W) 15:06:20 435.215
ITUPSAT 1 24 Nov 14:49:51 14:54:14 36° 292° (WNW) 14:58:35 437.325
KKS-1 24 Nov 14:50:29 14:54:52 56° 101° (E) 14:59:13 437.445
O/OREOS (USA 219) 24 Nov 14:56:41 14:59:11 15° 51° (NE) 15:01:40 437.305
JAS-2 24 Nov 14:57:30 15:02:19 18° 53° (NE) 15:07:11 435.910
AUBIESAT-1 24 Nov 15:01:50 15:05:52 26° 300° (WNW) 15:09:52 437.475
SWISSCUBE 24 Nov 15:01:51 15:05:48 26° 295° (WNW) 15:09:43 437.505
HORYU 2 24 Nov 15:05:46 15:10:09 63° 258° (WSW) 15:14:34 437.375
M-CUBED/EXP-1 PRIME 24 Nov 15:05:59 15:09:47 23° 301° (WNW) 15:13:34 437.505
Gurwin Techsat 1B 24 Nov 15:09:38 15:14:20 31° 264° (W) 15:19:03 435.225
PHONESAT 2.4 24 Nov 15:10:17 15:12:30 15° 150° (SSE) 15:14:44 2401.200-2431.200
RS-15 24 Nov 15:17:43 15:26:27 29° 104° (ESE) 15:35:06 29.354- 29.394
AO-7 24 Nov 15:26:46 15:35:01 77° 69° (ENE) 15:43:21 29.400- 29.500
VERMONT LUNAR 24 Nov 15:27:36 15:30:33 24° 156° (SSE) 15:33:32 437.305
BEESAT 24 Nov 15:34:22 15:37:00 15° 300° (WNW) 15:39:37 436.000
STARS 24 Nov 15:50:06 15:54:21 49° 288° (WNW) 15:58:34 437.465
MaSat-1 24 Nov 16:16:37 16:19:27 39° 299° (WNW) 16:22:03 437.345
CUTE-I 24 Nov 16:18:01 16:20:43 14° 58° (ENE) 16:23:24 437.470
KKS-1 24 Nov 16:28:27 16:31:04 16° 298° (WNW) 16:33:41 437.445
O/OREOS (USA 219) 24 Nov 16:34:38 16:39:05 69° 250° (WSW) 16:43:32 437.305
JAS-2 24 Nov 16:38:28 16:46:02 75° 73° (ENE) 16:53:55 435.910
PHONESAT 2.4 24 Nov 16:47:14 16:50:46 42° 166° (SSE) 16:54:19 2401.200-2431.200
YUBILEINY 24 Nov 16:51:02 16:52:41 11° 289° (WNW) 16:54:21 435.215
VERMONT LUNAR 24 Nov 17:05:08 17:08:41 53° 172° (S) 17:12:14 437.305
Cubesat XI-IV 24 Nov 17:13:12 17:18:13 41° 68° (ENE) 17:23:14 437.490
MOZHAYETS 4 24 Nov 17:19:23 17:24:01 62° 101° (E) 17:28:37
AO-7 24 Nov 17:22:18 17:28:35 24° 268° (W) 17:34:56 29.400- 29.500
RS-15 24 Nov 17:26:37 17:37:35 79° 306° (NW) 17:48:38 29.354- 29.394
PRISM 24 Nov 17:32:30 17:34:57 15° 92° (E) 17:37:24 437.425
CUTE-I 24 Nov 17:54:39 18:00:01 88° 256° (WSW) 18:05:25 437.470
PHONESAT 2.4 24 Nov 18:25:42 18:29:22 59° 183° (S) 18:33:02 2401.200-2431.200
JAS-2 24 Nov 18:25:49 18:31:42 24° 271° (W) 18:37:49 435.910
GONETS M04 24 Nov 18:42:44 18:50:34 34° 69° (ENE) 18:58:19
VERMONT LUNAR 24 Nov 18:43:27 18:46:59 51° 189° (S) 18:50:31 437.305
STRAND 1 24 Nov 18:48:43 18:53:27 37° 97° (E) 18:58:08 437.568
Cubesat XI-IV 24 Nov 18:53:55 18:58:25 27° 265° (W) 19:02:56 437.490
CUBESAT XI-V 24 Nov 18:56:16 19:00:48 47° 99° (E) 19:05:16 437.345
MOZHAYETS 4 24 Nov 18:58:01 19:00:44 16° 298° (WNW) 19:03:27
PRISM 24 Nov 19:06:41 19:10:48 49° 288° (WNW) 19:14:52 437.425
CUTE 1.7 & AOD 2 24 Nov 19:12:59 19:14:28 12° 61° (ENE) 19:15:58 437.475
HO-68 24 Nov 19:30:06 19:36:39 40° 63° (ENE) 19:43:12 435.675
CUTE-I 24 Nov 19:39:18 19:40:49 11° 272° (W) 19:42:21 437.470
RS-15 24 Nov 19:42:40 19:51:58 31° 334° (NNW) 20:01:26 29.354- 29.394
SEEDS 24 Nov 19:45:58 19:49:13 22° 67° (ENE) 19:52:30 437.485
GOMX 1 24 Nov 19:52:18 19:56:05 24° 68° (ENE) 19:59:42 467.674
PCSat 24 Nov 19:53:30 19:58:37 45° 113° (ESE) 20:03:46 145.827
AIST 1 24 Nov 20:04:20 20:08:41 69° 96° (E) 20:13:06
PHONESAT 2.4 24 Nov 20:04:32 20:07:54 33° 199° (SSW) 20:11:16 2401.200-2431.200
DX 1 24 Nov 20:05:06 20:07:37 15° 62° (ENE) 20:10:08 434.975-435.025
AAUSAT CUBESAT 2 24 Nov 20:05:36 20:09:06 27° 68° (ENE) 20:12:38 437.432
CINEMA 3 24 Nov 20:06:06 20:08:29 15° 64° (ENE) 20:10:49 145.822/145.860
CANX-2 24 Nov 20:10:52 20:14:57 51° 73° (ENE) 20:19:04 2200.000
BRITE-PL 24 Nov 20:12:01 20:16:55 51° 73° (ENE) 20:21:27 437.365/2234.400
COMPASS 1 24 Nov 20:19:20 20:23:15 42° 72° (ENE) 20:27:13 437.405
DELFI C3 24 Nov 20:19:26 20:22:03 17° 65° (ENE) 20:24:42 145.870
VERMONT LUNAR 24 Nov 20:22:15 20:25:05 21° 206° (SSW) 20:27:53 437.305
STRAND 1 24 Nov 20:28:10 20:32:29 28° 295° (WNW) 20:36:48 437.568
ZACube-1 24 Nov 20:32:56 20:34:47 13° 62° (ENE) 20:36:38 437.345
CUBESAT XI-V 24 Nov 20:34:33 20:37:54 20° 296° (WNW) 20:41:13 437.345
BEESAT 3 24 Nov 20:37:32 20:41:29 49° 118° (ESE) 20:45:32 437.485
GONETS M04 24 Nov 20:39:15 20:47:48 57° 270° (W) 20:56:17
CUTE 1.7 & AOD 2 24 Nov 20:45:38 20:49:49 71° 258° (WSW) 20:54:04 437.475
BEESAT 2 24 Nov 20:51:36 20:55:40 64° 120° (ESE) 20:59:50 435.950
AISAT 24 Nov 20:53:22 20:56:06 16° 62° (ENE) 20:58:49 437.250
DOVE 4 24 Nov 20:53:58 20:58:37 74° 75° (ENE) 21:03:00 437.250
